Location: Acheville
(50.3840°N, 2.8827°E)
Time: 10:58:03
(UTC+00:00)

Cosmos 2333 Rocket - Pass Details

Date: 24 October 2021
Orbit: 837 x 865 km, 70.8° (Epoch: 30 November)

Event Time Altitude Azimuth Distance (km) Brightness Sun altitude
Rises 20:04:47 0° 220° (SW) 3,391 5.5 -33.0°
Reaches altitude 10° 20:07:14 10° 223° (SW) 2,463 4.8 -33.4°
Enters shadow 20:09:41 26° 232° (SW) 1,601 3.8 -33.7°
